Regional Weather Roundup
Issued by NWS

Home | Current Version | Previous Version | Text Only | Print | Product List | Glossary Off
Versions: 1 2 3 4 5 6 7 8 9 10 11 12 13 14 15 16 17 18 19 20 21 22 23 24 25 26 27 28 29 30 31 32 33 34 35 36 37 38 39 40 41 42 43 44 45 46 47 48 49 50

000
ASUS43 KDMX 212301
RWRIA

WEATHER ROUNDUP FOR IOWA
NATIONAL WEATHER SERVICE DES MOINES IA
600 PM CDT MON MAY 21 2018

NOTE: "FAIR" INDICATES FEW OR NO CLOUDS BELOW 12,000 FEET WITH NO
SIGNIFICANT WEATHER AND/OR OBSTRUCTIONS TO VISIBILITY.

* - THESE STATIONS ARE NOT NWS STATIONS...THUS NOT UNDER NWS
QUALITY CONTROL.  THEY ALSO DO NOT REPORT WEATHER SUCH
AS PRECIPITATION OR FOG.

IAZ001>003-012>014-020>022-031>034-043>046-220000-
   NORTHWEST IOWA

CITY           SKY/WX    TMP DP  RH WIND       PRES   REMARKS
CARROLL *      MOSUNNY  N/A N/A N/A W14       29.98S
CHEROKEE *     CLOUDY    66  61  83 CALM      29.98S
DENISON *      PTSUNNY   68  57  68 W6        30.00F
LE MARS *      MOSUNNY   68  57  68 CALM      29.97F
ORANGE CITY *  CLOUDY    66  59  77 SW7       29.99S
SHELDON *      CLOUDY    64  61  88 CALM      29.97F
SIOUX CITY     SUNNY     71  57  61 NE3       29.96F
SPENCER        CLOUDY    67  59  75 CALM      29.99S
STORM LAKE *   PTSUNNY   66  59  77 SW6       29.99S
$$

IAZ055>058-069>071-079>083-090>094-220000-
   SOUTHWEST IOWA

CITY           SKY/WX    TMP DP  RH WIND       PRES   REMARKS
ATLANTIC *     SUNNY     70  57  64 NW8       29.99S
AUDUBON *      MOSUNNY   68  59  73 CALM      30.01S
CLARINDA *     SUNNY     75  55  50 NW8       29.99S
COUNCIL BLFS * MOSUNNY   72  61  68 CALM      29.98S
CRESTON *      MOSUNNY   73  59  60 SW6       29.99S
HARLAN  *      MOSUNNY   68  59  73 CALM      30.02F
LAMONI         SUNNY     71  60  68 SW9       29.99S
RED OAK *      SUNNY     75  55  50 NW5G12    29.98S
SHENANDOAH *   SUNNY     75  54  46 VRB7      29.98S
$$

IAZ047>049-059>061-072>074-084-220000-
   CENTRAL IOWA

CITY           SKY/WX    TMP DP  RH WIND       PRES   REMARKS
AMES           MOSUNNY   68  60  75 CALM      29.98S
ANKENY *       MOSUNNY   70  61  73 NW3       29.98S
BOONE *        MOSUNNY   68  61  77 CALM      29.98R
CHARITON *     MOSUNNY   73  63  68 SW7       29.97F
DES MOINES     MOSUNNY   72  61  68 CALM      29.97S
GRINNELL*      CLOUDY    65  60  84 W5        30.00F
KNOXVILLE *    MOSUNNY   70  61  73 N5        29.97S
MARSHALLTOWN   CLOUDY    64  61  90 CALM      29.98F
NEWTON *       CLOUDY    68  63  83 VRB6      29.99S
PELLA *        MOSUNNY   69  61  75 N3        29.99S
PERRY *        PTSUNNY   72  61  69 CALM      29.97S
$$

IAZ004>006-015-016-023>025-035-036-220000-
   NORTH CENTRAL IOWA

CITY           SKY/WX    TMP DP  RH WIND       PRES   REMARKS
ALGONA *       CLOUDY    63  59  88 CALM      30.00S
CLARION *      CLOUDY    64  59  82 W5        29.99S
ESTHERVILLE    CLOUDY    61  59  93 CALM      29.99S
FORT DODGE *   CLOUDY    66  61  84 NE3       29.99S
MASON CITY     CLOUDY    61  57  87 CALM      30.01S
FOREST CITY *  CLOUDY    61  59  94 CALM      30.00S
WEBSTER CITY * CLOUDY    66  61  82 N5        29.97S
IOWA FALLS *   CLOUDY    64  59  84 CALM      30.01R
$$

IAZ007>011-017>019-026>030-037>042-050>054-066-220000-
   NORTHEAST IOWA

CITY           SKY/WX    TMP DP  RH WIND       PRES   REMARKS
CEDAR RAPIDS   CLOUDY    63  61  93 NW8       29.98S
CHARLES CITY * CLOUDY    59  55  88 CALM      30.00S
CLINTON *      CLOUDY   N/A N/A N/A CALM      29.97F HAZE
DECORAH *      CLOUDY    57  57 100 CALM      29.99S
DUBUQUE        CLOUDY    61  59  93 N3        29.99S FOG
MONTICELLO *   CLOUDY    64  63  94 CALM      29.98S
OELWEIN *      CLOUDY    61  59  94 CALM      30.00S
WATERLOO       CLOUDY    61  58  90 NW3       29.99R
$$

IAZ064-065-067-068-078-220000-
   EAST CENTRAL IOWA

CITY           SKY/WX    TMP DP  RH WIND       PRES   REMARKS
DAVENPORT      CLOUDY    69  64  84 N8        29.98R
IOWA CITY      CLOUDY    67  61  81 W8        29.99F
MT. PLEASANT * MOSUNNY   73  61  64 W7        29.97S
MUSCATINE *    FAIR      75  63  64 W13       29.96F
QUAD CITIES    PTSUNNY   76  66  71 W5        29.94F
$$

IAZ062-063-075>077-085>089-095>099-220000-
   SOUTHEAST IOWA

CITY           SKY/WX    TMP DP  RH WIND       PRES   REMARKS
BURLINGTON     MOSUNNY   76  61  59 W12       29.95F
FAIRFIELD *    PTSUNNY   72  63  73 NW8       29.97S
FORT MADISON * MOSUNNY   79  63  57 W10       29.97F HX  80
KEOKUK *       SUNNY     75  63  64 NW8       29.96S
OSKALOOSA *    FAIR      70  62  76 N6        29.99S
CENTERVILLE *    N/A     73  66  78 CALM      29.99S
OTTUMWA        PTSUNNY   73  64  73 N7        29.98S
WASHINGTON *   PTSUNNY   72  64  78 NW10      29.99S
$$

ABBREVIATIONS USED IN REMARKS
   TC - TEMPERATURES IN CELSIUS
  WCI - WIND CHILL INDEX
   HX - HEAT INDEX
  VSB - VISIBILITY
$$





USA.gov is the U.S. government's official web portal to all federal, state and local government web resources and services.